Abingdon, VA

6:44 PM EST on February 09, 2016 (GMT -0500)
Virginia Highlands

Weather History for KVJI - November, 2013

Change the Weather History Date:

Sunday, November 10, 2013

  Actual Average (KTRI) Record (KTRI)
Temperature  
Mean Temperature 48 °F 49 °F  
Max Temperature 61 °F 61 °F 80 °F (1946)
Min Temperature 34 °F 36 °F 22 °F (1957)
Degree Days  
Heating Degree Days 18 16  
Month to date heating degree days 150  
Since 1 July heating degree days 485  
Cooling Degree Days 0 0  
Month to date cooling degree days 0  
Year to date cooling degree days 980  
Moisture  
Dew Point 32 °F    
Average Humidity 60    
Maximum Humidity 93    
Minimum Humidity 29    
Precipitation  
Precipitation 0.00 in 0.09 in 1.37 in (2009)
Month to date precipitation 0.92  
Year to date precipitation 35.46  
Snow  
Snow 0.00 in 0.00 in - ()
Month to date snowfall 0.0  
Since 1 July snowfall 0.1  
Since 1 September snowfall 0.1  
Snow Depth -    
Sea Level Pressure  
Sea Level Pressure 30.25 in    
Wind  
Wind Speed 4 mph (WNW)    
Max Wind Speed 15 mph    
Max Gust Speed 20 mph    
Visibility 10 miles    
Events      
T = Trace of Precipitation, MM = Missing Value Source: NWS Daily Summary

Daily Weather History Graph

Daily Weather History Graph

Search for Another Location

Airport or City:

Trip Planner

Search our weather history database for the weather conditions in past years. The results will help you decide how hot, cold, wet, or windy it might be!

Date:

Astronomy

Nov. 10, 2013 Rise Set
Actual Time 7:01 AM EST 5:22 PM EST
Civil Twilight 6:33 AM EST 5:49 PM EST
Nautical Twilight 6:02 AM EST 6:20 PM EST
Astronomical Twilight 5:32 AM EST 6:51 PM EST
Moon 1:17 PM EST (11/10) No Moon Set
Length of Visible Light 11h 16m
Length of Day
10h 21m
First Quarter, 55% of the Moon is Illuminated
Nov 10
First Quarter
Nov 17
Full
Nov 25
Last Quarter
Dec 2
New
Dec 9
First Quarter

Hourly Weather History & Observations

Time (EST) Temp. Windchill Dew Point Humidity Pressure Visibility Wind Dir Wind Speed Gust Speed Precip Events Conditions
12:15 AM 41.0 °F - 32.0 °F 70% 30.24 in 10.0 mi Calm Calm - N/A   Scattered Clouds
12:35 AM 41.9 °F 40.0 °F 32.0 °F 68% 30.23 in 10.0 mi West 3.5 mph - N/A   Clear
12:55 AM 39.4 °F 37.2 °F 32.0 °F 75% 30.23 in 10.0 mi West 3.5 mph - N/A   Clear
1:15 AM 39.9 °F 37.8 °F 32.0 °F 73% 30.23 in 10.0 mi West 3.5 mph - N/A   Clear
1:35 AM 40.5 °F 38.4 °F 32.0 °F 72% 30.23 in 10.0 mi West 3.5 mph - N/A   Clear
1:55 AM 39.7 °F 37.6 °F 32.0 °F 74% 30.23 in 10.0 mi West 3.5 mph - N/A   Clear
2:15 AM 39.6 °F - 32.0 °F 74% 30.23 in 10.0 mi Calm Calm - N/A   Clear
2:35 AM 39.2 °F - 32.0 °F 75% 30.23 in 10.0 mi Calm Calm - N/A   Clear
2:55 AM 39.4 °F 37.2 °F 32.0 °F 75% 30.23 in 10.0 mi West 3.5 mph - N/A   Clear
3:15 AM 37.6 °F - 32.2 °F 81% 30.23 in 10.0 mi Calm Calm - N/A   Clear
3:35 AM 37.0 °F - 32.0 °F 82% 30.23 in 10.0 mi Calm Calm - N/A   Clear
3:55 AM 37.0 °F - 32.0 °F 82% 30.23 in 10.0 mi Calm Calm - N/A   Clear
4:15 AM 36.5 °F 33.9 °F 32.4 °F 85% 30.23 in 10.0 mi West 3.5 mph - N/A   Clear
4:35 AM 36.5 °F - 32.2 °F 84% 30.23 in 10.0 mi Calm Calm - N/A   Clear
4:55 AM 35.6 °F - 32.2 °F 87% 30.23 in 10.0 mi Calm Calm - N/A   Clear
5:15 AM 37.0 °F - 32.9 °F 85% 30.23 in 10.0 mi Calm Calm - N/A   Clear
5:35 AM 37.2 °F - 32.5 °F 83% 30.23 in 10.0 mi Calm Calm - N/A   Clear
5:55 AM 35.4 °F - 32.7 °F 90% 30.24 in 10.0 mi Calm Calm - N/A   Clear
6:15 AM 34.7 °F - 32.2 °F 91% 30.25 in 10.0 mi Calm Calm - N/A   Clear
6:35 AM 34.5 °F - 32.2 °F 91% 30.25 in 10.0 mi Calm Calm - N/A   Clear
6:55 AM 34.0 °F - 32.0 °F 92% 30.26 in 10.0 mi Calm Calm - N/A   Clear
7:15 AM 34.0 °F - 32.0 °F 92% 30.26 in 10.0 mi Calm Calm - N/A   Clear
7:35 AM 34.7 °F 31.8 °F 32.9 °F 93% 30.26 in 10.0 mi West 3.5 mph - N/A   Clear
7:55 AM 36.0 °F 33.3 °F 33.6 °F 91% 30.27 in 10.0 mi West 3.5 mph - N/A   Clear
8:15 AM 40.3 °F 38.2 °F 35.6 °F 83% 30.27 in 10.0 mi West 3.5 mph - N/A   Clear
8:35 AM 42.3 °F 37.9 °F 36.7 °F 81% 30.27 in 10.0 mi WSW 6.9 mph - N/A   Clear
8:55 AM 44.1 °F 40.1 °F 37.0 °F 76% 30.27 in 10.0 mi West 6.9 mph - N/A   Clear
9:15 AM 45.9 °F 42.3 °F 37.6 °F 73% 30.27 in 10.0 mi West 6.9 mph - N/A   Clear
9:35 AM 47.5 °F - 37.9 °F 69% 30.27 in 10.0 mi West 8.1 mph - N/A   Clear
9:55 AM 49.5 °F - 38.5 °F 66% 30.27 in 10.0 mi West 8.1 mph - N/A   Clear
10:15 AM 50.9 °F - 39.0 °F 64% 30.27 in 10.0 mi WSW 11.5 mph - N/A   Clear
10:35 AM 52.2 °F - 39.6 °F 62% 30.27 in 10.0 mi West 10.4 mph - N/A   Clear
10:55 AM 53.8 °F - 40.5 °F 61% 30.27 in 10.0 mi West 9.2 mph - N/A   Clear
11:15 AM 54.5 °F - 40.3 °F 59% 30.26 in 10.0 mi West 11.5 mph 17.3 mph N/A   Clear
11:35 AM 55.0 °F - 40.3 °F 58% 30.25 in 10.0 mi WNW 10.4 mph - N/A   Clear
11:55 AM 56.5 °F - 40.3 °F 55% 30.25 in 10.0 mi West 10.4 mph 19.6 mph N/A   Clear
12:15 PM 56.7 °F - 39.7 °F 53% 30.23 in 10.0 mi West 10.4 mph 17.3 mph N/A   Clear
12:35 PM 58.1 °F - 40.1 °F 51% 30.23 in 10.0 mi West 11.5 mph 18.4 mph N/A   Clear
12:55 PM 57.9 °F - 39.4 °F 50% 30.21 in 10.0 mi WNW 11.5 mph 18.4 mph N/A   Clear
1:15 PM 59.4 °F - 39.9 °F 49% 30.20 in 10.0 mi West 15.0 mph 19.6 mph N/A   Clear
1:35 PM 59.7 °F - 39.6 °F 47% 30.20 in 10.0 mi WNW 6.9 mph - N/A   Clear
1:55 PM 60.3 °F - 38.7 °F 45% 30.20 in 10.0 mi West 13.8 mph 18.4 mph N/A   Clear
2:15 PM 61.3 °F - 37.9 °F 42% 30.19 in 10.0 mi WNW 9.2 mph 17.3 mph N/A   Clear
2:35 PM 61.3 °F - 37.4 °F 41% 30.19 in 10.0 mi West 13.8 mph 19.6 mph N/A   Clear
2:55 PM 61.3 °F - 37.0 °F 40% 30.18 in 10.0 mi West 9.2 mph - N/A   Clear
3:15 PM 61.9 °F - 35.8 °F 38% 30.18 in 10.0 mi WNW 9.2 mph 16.1 mph N/A   Clear
3:35 PM 61.7 °F - 32.4 °F 33% 30.19 in 10.0 mi NNW 10.4 mph 19.6 mph N/A   Clear
3:55 PM 60.8 °F - 29.1 °F 30% 30.20 in 10.0 mi North 12.7 mph 18.4 mph N/A   Clear
4:15 PM 60.3 °F - 28.2 °F 30% 30.20 in 10.0 mi NNW 8.1 mph - N/A   Clear
4:35 PM 59.4 °F - 26.6 °F 29% 30.20 in 10.0 mi NNW 9.2 mph 17.3 mph N/A   Clear
4:55 PM 58.5 °F - 26.6 °F 30% 30.22 in 10.0 mi NNW 8.1 mph - N/A   Clear
5:15 PM 57.2 °F - 26.6 °F 31% 30.22 in 10.0 mi North 6.9 mph 17.3 mph N/A   Clear
5:35 PM 55.6 °F - 25.7 °F 32% 30.23 in 10.0 mi North 10.4 mph - N/A   Clear
5:55 PM 54.9 °F - 24.8 °F 31% 30.23 in 10.0 mi NNW 9.2 mph - N/A   Clear
6:15 PM 53.8 °F - 25.5 °F 34% 30.24 in 10.0 mi North 9.2 mph - N/A   Clear
6:35 PM 53.1 °F - 25.7 °F 35% 30.25 in 10.0 mi North 8.1 mph - N/A   Clear
6:55 PM 52.3 °F - 26.1 °F 36% 30.25 in 10.0 mi North 8.1 mph - N/A   Clear
7:15 PM 51.6 °F - 25.9 °F 37% 30.27 in 10.0 mi North 5.8 mph 16.1 mph N/A   Clear
7:35 PM 50.7 °F - 25.5 °F 38% 30.27 in 10.0 mi North 6.9 mph - N/A   Clear
7:55 PM 49.3 °F - 26.1 °F 40% 30.27 in 10.0 mi North 6.9 mph - N/A   Clear
8:15 PM 47.5 °F - 26.6 °F 44% 30.28 in 10.0 mi North 5.8 mph - N/A   Clear
8:35 PM 47.1 °F - 27.0 °F 46% 30.29 in 10.0 mi Calm Calm - N/A   Clear
8:55 PM 46.6 °F - 27.0 °F 46% 30.30 in 10.0 mi NE 3.5 mph - N/A   Clear
9:15 PM 44.6 °F 41.4 °F 27.5 °F 51% 30.30 in 10.0 mi NNE 5.8 mph - N/A   Clear
9:35 PM 45.1 °F 43.7 °F 27.1 °F 49% 30.30 in 10.0 mi North 3.5 mph - N/A   Clear
9:55 PM 44.6 °F 43.1 °F 26.8 °F 50% 30.31 in 10.0 mi SSE 3.5 mph - N/A   Clear
10:15 PM 43.5 °F - 27.0 °F 52% 30.31 in 10.0 mi Calm Calm - N/A   Clear
10:35 PM 43.9 °F 41.3 °F 26.2 °F 50% 30.31 in 10.0 mi NE 4.6 mph - N/A   Clear
10:55 PM 41.4 °F - 27.1 °F 57% 30.31 in 10.0 mi Calm Calm - N/A   Clear
11:15 PM 38.1 °F - 27.3 °F 65% 30.30 in 10.0 mi Calm Calm - N/A   Clear
11:35 PM 37.9 °F 34.4 °F 27.0 °F 65% 30.29 in 10.0 mi North 4.6 mph - N/A   Clear
11:55 PM 35.6 °F - 27.1 °F 71% 30.28 in 10.0 mi Calm Calm - N/A   Clear